Location: St. Louis
(38.6270°N, 90.1994°W)
Time: 20:44:00
(UTC-06:00)

Vanguard 3 - Pass Details

Date: 01 December 2021
Orbit: 508 x 3260 km, 33.3° (Epoch: 19 January)

Event Time Altitude Azimuth Distance (km) Brightness Sun altitude
Exits shadow 03:55:20 25° 219° (SW) 5,023 10.8 -35.5°
Maximum altitude 04:08:15 55° 157° (SSE) 3,474 10.3 -32.9°
Drops below altitude 10° 04:23:09 10° 86° (E) 4,932 12.0 -30.0°
Sets 04:26:27 0° 82° (E) 5,627 12.6 -29.4°
